When you browse on this site, cookies collect data to enhance your experience and personalize the content and advertising you see.
Visit our Privacy Policy to learn more. By continuing to use the site, you agree to this use of cookies and data.
  • In Sweden
  • List of Countries
  • For 7 days
  • Water Temperature
  • Satellite Maps
  • Weather Map
  • Weather Widgets
  • user-avatar
    Login

    Hourly Weather Bangor

    Today, 18 June, Tuesday

    Time Temperature Precipitation Wind Pressure Humidity
    00:00 +11°C° 0 mm 1 mps 744 mmHg 96%
    01:00 +11°C° 0 mm 1 mps 744 mmHg 96%
    02:00 +11°C° 0 mm 1 mps 744 mmHg 96%
    03:00 +11°C° 0 mm 1 mps 743 mmHg 96%
    04:00 +11°C° 0 mm 1 mps 743 mmHg 95%
    05:00 +12°C° 0 mm 1 mps 743 mmHg 95%
    06:00 +12°C° 0 mm 1 mps 743 mmHg 94%
    07:00 +13°C° 0 mm 1 mps 743 mmHg 91%
    08:00 +14°C° 0 mm 1 mps 743 mmHg 88%
    09:00 +15°C° 0 mm 2 mps 743 mmHg 85%
    10:00 +14°C° 0.4 mm 1 mps 743 mmHg 87%
    11:00 +14°C° 0.4 mm 1 mps 743 mmHg 89%
    12:00 +14°C° 0.4 mm 1 mps 743 mmHg 90%
    13:00 +14°C° 0.4 mm 1 mps 743 mmHg 92%
    14:00 +13°C° 0.4 mm 1 mps 742 mmHg 94%
    15:00 +13°C° 0.4 mm 1 mps 742 mmHg 97%
    16:00 +13°C° 0 mm 1 mps 742 mmHg 94%
    17:00 +14°C° 0 mm 1 mps 742 mmHg 91%
    18:00 +14°C° 0 mm 1 mps 741 mmHg 89%
    19:00 +13°C° 0 mm 1 mps 741 mmHg 90%
    20:00 +13°C° 0 mm 1 mps 741 mmHg 92%
    21:00 +12°C° 0 mm 1 mps 741 mmHg 94%
    22:00 +12°C° 0 mm 1 mps 740 mmHg 94%
    23:00 +12°C° 0 mm 1 mps 740 mmHg 93%

    Tomorrow, 19 June, Wednesday

    Time Temperature Precipitation Wind Pressure Humidity
    00:00 +12°C° 0 mm 1 mps 740 mmHg 93%
    01:00 +12°C° 0.1 mm 1 mps 739 mmHg 94%
    02:00 +12°C° 0.1 mm 1 mps 739 mmHg 94%
    03:00 +12°C° 0.1 mm 1 mps 738 mmHg 95%
    04:00 +12°C° 0.1 mm 1 mps 738 mmHg 95%
    05:00 +12°C° 0.1 mm 1 mps 738 mmHg 96%
    06:00 +13°C° 0.1 mm 1 mps 739 mmHg 96%
    07:00 +13°C° 0.1 mm 1 mps 739 mmHg 94%
    08:00 +14°C° 0.1 mm 2 mps 739 mmHg 91%
    09:00 +15°C° 0.1 mm 2 mps 739 mmHg 89%
    10:00 +15°C° 0.3 mm 2 mps 739 mmHg 86%
    11:00 +15°C° 0.3 mm 2 mps 740 mmHg 84%
    12:00 +16°C° 0.3 mm 2 mps 740 mmHg 82%
    13:00 +16°C° 0.2 mm 3 mps 740 mmHg 82%
    14:00 +15°C° 0.2 mm 4 mps 740 mmHg 82%
    15:00 +15°C° 0.2 mm 4 mps 740 mmHg 81%
    16:00 +15°C° 0.2 mm 4 mps 740 mmHg 82%
    17:00 +15°C° 0.2 mm 5 mps 740 mmHg 82%
    18:00 +14°C° 0.2 mm 5 mps 740 mmHg 82%
    19:00 +13°C° 0 mm 4 mps 740 mmHg 85%
    20:00 +11°C° 0 mm 3 mps 740 mmHg 88%
    21:00 +9°C° 0 mm 3 mps 740 mmHg 90%
    22:00 +8°C° 0 mm 2 mps 740 mmHg 92%
    23:00 +8°C° 0 mm 2 mps 740 mmHg 94%

    Day after tomorrow, 20 June, Thursday

    Time Temperature Precipitation Wind Pressure Humidity
    00:00 +8°C° 0 mm 2 mps 741 mmHg 95%
    01:00 +8°C° 0 mm 2 mps 741 mmHg 95%
    02:00 +8°C° 0 mm 3 mps 741 mmHg 95%
    03:00 +9°C° 0 mm 3 mps 741 mmHg 95%
    04:00 +10°C° 0 mm 3 mps 741 mmHg 93%
    05:00 +10°C° 0 mm 3 mps 741 mmHg 92%
    06:00 +12°C° 0 mm 2 mps 741 mmHg 91%
    07:00 +12°C° 0.1 mm 3 mps 742 mmHg 86%
    08:00 +13°C° 0.1 mm 4 mps 742 mmHg 82%
    09:00 +13°C° 0.1 mm 5 mps 742 mmHg 78%
    10:00 +14°C° 0.1 mm 5 mps 742 mmHg 76%
    11:00 +14°C° 0.1 mm 6 mps 742 mmHg 75%
    12:00 +15°C° 0.1 mm 7 mps 743 mmHg 73%
    13:00 +15°C° 0.1 mm 7 mps 743 mmHg 73%
    14:00 +15°C° 0.1 mm 7 mps 743 mmHg 72%
    15:00 +15°C° 0.1 mm 7 mps 743 mmHg 71%
    16:00 +14°C° 0.1 mm 6 mps 743 mmHg 73%
    17:00 +14°C° 0.1 mm 6 mps 743 mmHg 76%
    18:00 +13°C° 0.1 mm 6 mps 743 mmHg 79%
    19:00 +12°C° 0 mm 5 mps 743 mmHg 83%
    20:00 +10°C° 0 mm 4 mps 744 mmHg 88%
    21:00 +8°C° 0 mm 3 mps 744 mmHg 92%
    22:00 +8°C° 0 mm 3 mps 744 mmHg 93%
    23:00 +8°C° 0 mm 2 mps 744 mmHg 93%

    21 June, Friday

    Time Temperature Precipitation Wind Pressure Humidity
    00:00 +7°C° 0 mm 2 mps 744 mmHg 94%
    01:00 +7°C° 0 mm 2 mps 744 mmHg 94%
    02:00 +7°C° 0 mm 2 mps 744 mmHg 95%
    03:00 +7°C° 0 mm 2 mps 745 mmHg 95%
    04:00 +8°C° 0 mm 2 mps 745 mmHg 93%
    05:00 +9°C° 0 mm 2 mps 745 mmHg 91%
    06:00 +10°C° 0 mm 2 mps 745 mmHg 89%
    07:00 +11°C° 0 mm 3 mps 745 mmHg 84%
    08:00 +12°C° 0 mm 3 mps 746 mmHg 80%
    09:00 +13°C° 0 mm 4 mps 746 mmHg 76%
    10:00 +14°C° 0.1 mm 4 mps 746 mmHg 73%
    11:00 +14°C° 0.1 mm 4 mps 746 mmHg 71%
    12:00 +15°C° 0.1 mm 4 mps 747 mmHg 68%
    13:00 +15°C° 0 mm 4 mps 747 mmHg 69%
    14:00 +15°C° 0 mm 4 mps 747 mmHg 69%
    15:00 +14°C° 0 mm 4 mps 747 mmHg 69%
    16:00 +14°C° 0 mm 4 mps 747 mmHg 71%
    17:00 +14°C° 0 mm 4 mps 747 mmHg 73%
    18:00 +13°C° 0 mm 3 mps 747 mmHg 75%
    19:00 +12°C° 0 mm 3 mps 747 mmHg 80%
    20:00 +10°C° 0 mm 2 mps 748 mmHg 84%
    21:00 +8°C° 0 mm 2 mps 748 mmHg 88%
    22:00 +8°C° 0 mm 1 mps 748 mmHg 88%
    23:00 +8°C° 0 mm 1 mps 748 mmHg 87%

    22 June, Saturday

    Time Temperature Precipitation Wind Pressure Humidity
    00:00 +7°C° 0 mm 1 mps 748 mmHg 87%
    01:00 +7°C° 0 mm 1 mps 748 mmHg 87%
    02:00 +7°C° 0 mm 1 mps 748 mmHg 86%
    03:00 +6°C° 0 mm 1 mps 748 mmHg 86%
    04:00 +7°C° 0 mm 1 mps 748 mmHg 84%
    05:00 +8°C° 0 mm 1 mps 748 mmHg 83%
    06:00 +10°C° 0 mm 1 mps 748 mmHg 82%
    07:00 +11°C° 0 mm 1 mps 748 mmHg 78%
    08:00 +13°C° 0 mm 1 mps 748 mmHg 74%
    09:00 +14°C° 0 mm 1 mps 748 mmHg 71%
    10:00 +15°C° 0 mm 1 mps 748 mmHg 69%
    11:00 +16°C° 0 mm 1 mps 748 mmHg 67%
    12:00 +18°C° 0 mm 1 mps 748 mmHg 65%
    13:00 +18°C° 0 mm 1 mps 748 mmHg 64%
    14:00 +18°C° 0 mm 1 mps 748 mmHg 64%
    15:00 +18°C° 0 mm 1 mps 748 mmHg 64%
    16:00 +18°C° 0 mm 1 mps 748 mmHg 65%
    17:00 +18°C° 0 mm 1 mps 747 mmHg 67%
    18:00 +18°C° 0 mm 1 mps 747 mmHg 68%
    19:00 +14°C° 0 mm 0 mps 747 mmHg 73%
    20:00 +13°C° 0 mm 0 mps 747 mmHg 78%
    21:00 +11°C° 0 mm 0 mps 748 mmHg 83%
    22:00 +12°C° 0 mm 1 mps 747 mmHg 85%
    23:00 +11°C° 0 mm 1 mps 747 mmHg 87%

    23 June, Sunday

    Time Temperature Precipitation Wind Pressure Humidity
    00:00 +10°C° 0 mm 2 mps 747 mmHg 88%
    01:00 +10°C° 0 mm 2 mps 747 mmHg 90%
    02:00 +10°C° 0 mm 2 mps 747 mmHg 91%
    03:00 +9°C° 0 mm 2 mps 746 mmHg 93%
    04:00 +10°C° 0 mm 2 mps 746 mmHg 92%
    05:00 +12°C° 0 mm 2 mps 746 mmHg 91%
    06:00 +12°C° 0 mm 2 mps 746 mmHg 91%
    07:00 +13°C° 0 mm 2 mps 747 mmHg 88%
    08:00 +13°C° 0 mm 3 mps 747 mmHg 85%
    09:00 +14°C° 0 mm 3 mps 747 mmHg 82%
    10:00 +17°C° 0.1 mm 4 mps 746 mmHg 79%
    11:00 +18°C° 0.1 mm 4 mps 746 mmHg 76%
    12:00 +19°C° 0.1 mm 5 mps 746 mmHg 72%
    13:00 +19°C° 0.2 mm 5 mps 746 mmHg 74%
    14:00 +19°C° 0.2 mm 5 mps 746 mmHg 75%
    15:00 +19°C° 0.2 mm 5 mps 745 mmHg 76%
    16:00 +17°C° 0.3 mm 5 mps 745 mmHg 80%
    17:00 +17°C° 0.3 mm 4 mps 745 mmHg 84%
    18:00 +17°C° 0.3 mm 4 mps 745 mmHg 88%
    19:00 +15°C° 0.3 mm 4 mps 745 mmHg 90%
    20:00 +14°C° 0.3 mm 4 mps 745 mmHg 93%
    21:00 +14°C° 0.3 mm 4 mps 745 mmHg 95%
    22:00 +13°C° 0.6 mm 5 mps 744 mmHg 95%
    23:00 +13°C° 0.6 mm 6 mps 744 mmHg 96%
    Show more